Weather History for Jaffrey, NH

Change the Weather History Date:

Tuesday, October 9, 2012

  Actual Average Record
Temperature  
Mean Temperature 46 °F -  
Max Temperature 54 °F 58 °F 80 °F (2011)
Min Temperature 39 °F 38 °F 26 °F (2000)
Degree Days  
Heating Degree Days 18    
Moisture  
Dew Point 42 °F    
Average Humidity 78    
Maximum Humidity 87    
Minimum Humidity 68    
Precipitation  
Precipitation 0.00 in - - ()
Sea Level Pressure  
Sea Level Pressure 30.26 in    
Wind  
Wind Speed 1 mph (NE)    
Max Wind Speed 6 mph    
Max Gust Speed -    
Visibility 9 miles    
Events      
Averages and records for this station are not official NWS values.
T = Trace of Precipitation, MM = Missing Value Source: NWS Daily Summary

Daily Weather History Graph

Daily Weather History Graph

Search for Another Location

Airport:

Trip Planner

Search our weather history database for the weather conditions in past years. The results will help you decide how hot, cold, wet, or windy it might be!

Date:

Astronomy

Oct. 09, 2012 Rise Set
Actual Time 6:54 AM EDT 6:14 PM EDT
Civil Twilight 6:26 AM EDT 6:43 PM EDT
Nautical Twilight 5:53 AM EDT 7:15 PM EDT
Astronomical Twilight 5:20 AM EDT 7:48 PM EDT
Moon 12:20 AM EDT (10/9) 2:47 PM EDT (10/9)
Length of Visible Light 12h 16m
Length of Day
11h 19m
Last Quarter, 37% of the Moon is Illuminated
Oct 9
Last Quarter
Oct 15
New
Oct 21
First Quarter
Oct 29
Full
Nov 6
Last Quarter

Hourly Weather History & Observations

Time (EDT) Temp. Windchill Dew Point Humidity Pressure Visibility Wind Dir Wind Speed Gust Speed Precip Events Conditions
12:52 AM 39.0 °F - 35.1 °F 86% 30.33 in 10.0 mi Calm Calm - N/A   Clear
1:52 AM 39.9 °F - 36.0 °F 86% 30.33 in 10.0 mi Calm Calm - N/A   Overcast
2:15 AM 41.0 °F - 37.4 °F 87% 30.29 in 8.0 mi Calm Calm - N/A   Overcast
2:39 AM 41.0 °F 39.0 °F 37.4 °F 87% 30.29 in 10.0 mi NE 3.5 mph - N/A   Overcast
2:52 AM 42.1 °F 40.2 °F 37.9 °F 85% 30.31 in 10.0 mi Variable 3.5 mph - N/A   Overcast
3:42 AM 42.8 °F 41.1 °F 37.4 °F 81% 30.28 in 9.0 mi Variable 3.5 mph - N/A   Overcast
4:52 AM 42.1 °F - 37.9 °F 85% 30.31 in 6.0 mi Calm Calm - N/A   Overcast
5:52 AM 43.0 °F - 39.0 °F 86% 30.31 in 7.0 mi Calm Calm - N/A   Overcast
7:52 AM 44.1 °F - 39.0 °F 82% 30.32 in 7.0 mi Calm Calm - N/A   Overcast
8:08 AM 44.6 °F 43.1 °F 39.2 °F 81% 30.28 in 8.0 mi Variable 3.5 mph - N/A   Overcast
8:52 AM 45.0 °F - 41.0 °F 86% 30.33 in 8.0 mi Calm Calm - N/A   Overcast
9:10 AM 44.6 °F - 41.0 °F 87% 30.29 in 6.0 mi Calm Calm - N/A   Overcast
9:52 AM 46.0 °F 44.8 °F 42.1 °F 86% 30.32 in 10.0 mi Variable 3.5 mph - N/A   Overcast
10:48 AM 48.2 °F - 42.8 °F 82% 30.28 in 10.0 mi Variable 5.8 mph - N/A   Overcast
10:52 AM 48.9 °F - 43.0 °F 80% 30.32 in 10.0 mi Variable 3.5 mph - N/A   Overcast
11:10 AM 48.2 °F - 42.8 °F 82% 30.28 in 10.0 mi Variable 3.5 mph - N/A   Overcast
11:39 AM 50.0 °F - 42.8 °F 76% 30.27 in 10.0 mi North 4.6 mph - N/A   Overcast
11:52 AM 51.1 °F - 43.0 °F 74% 30.30 in 10.0 mi Variable 3.5 mph - N/A   Overcast
12:05 PM 51.8 °F - 44.6 °F 76% 30.26 in 10.0 mi Calm Calm - N/A   Overcast
12:12 PM 51.8 °F - 44.6 °F 76% 30.26 in 10.0 mi NNE 4.6 mph - N/A   Overcast
12:52 PM 54.0 °F - 44.1 °F 69% 30.28 in 10.0 mi Calm Calm - N/A   Overcast
1:52 PM 54.0 °F - 44.1 °F 69% 30.25 in 10.0 mi Calm Calm - N/A   Overcast
2:52 PM 53.1 °F - 44.1 °F 71% 30.24 in 10.0 mi Variable 3.5 mph - N/A   Overcast
3:52 PM 53.1 °F - 43.0 °F 69% 30.23 in 10.0 mi Variable 4.6 mph - N/A   Overcast
4:52 PM 52.0 °F - 44.1 °F 74% 30.22 in 10.0 mi Calm Calm - N/A   Overcast
5:52 PM 52.0 °F - 44.1 °F 74% 30.22 in 10.0 mi Calm Calm - N/A   Overcast
6:52 PM 52.0 °F - 44.1 °F 74% 30.22 in 10.0 mi Calm Calm - N/A   Overcast
7:23 PM 51.8 °F - 44.6 °F 76% 30.19 in 10.0 mi Calm Calm - N/A   Overcast
7:36 PM 51.8 °F - 44.6 °F 76% 30.19 in 10.0 mi Calm Calm - N/A   Overcast
7:52 PM 51.1 °F - 44.1 °F 77% 30.22 in 10.0 mi Calm Calm - N/A   Overcast
8:28 PM 51.8 °F - 44.6 °F 76% 30.18 in 10.0 mi ESE 4.6 mph - N/A   Overcast
8:52 PM 51.1 °F - 43.0 °F 74% 30.21 in 10.0 mi Calm Calm - N/A   Overcast
9:52 PM 50.0 °F - 43.0 °F 77% 30.20 in 10.0 mi Variable 4.6 mph - N/A   Overcast
10:01 PM 50.0 °F - 42.8 °F 76% 30.17 in 10.0 mi Calm Calm - N/A   Overcast
10:52 PM 50.0 °F - 41.0 °F 71% 30.18 in 10.0 mi Calm Calm - N/A   Overcast
11:52 PM 50.0 °F - 39.9 °F 68% 30.17 in 10.0 mi Calm Calm - N/A   Overcast